SCP
0 0 0 0 0 0 0 0 0 0 0 0 0 0 0 0 1 1 1 0 0 0 1 1 1 1 1 1 1 1 1 0 0 0 0 0 0 0 0 0 0 0 0
1 0 0 0 0 0 0 0 0 0 0 0 0 0 0 0 1 1 1 0 0 0 1 1 1 1 1 1 1 1 1 0 0 0 0 0 0 0 0 0 0 0 0
1 1 0 0 0 0 0 0 0 0 0 0 0 0 0 0 0 0 0 1 1 1 1 1 1 1 1 1 1 1 1 1 0 0 0 0 0 0 0 0 0 0 0
1 0 0 0 0 0 0 0 0 0 0 0 0 0 0 0 0 0 0 0 1 1 1 1 1 1 1 1 1 1 1 1 0 0 0 0 0 0 0 0 0 0 0
0 0 0 0 0 0 0 0 0 0 0 0 0 0 0 0 0 0 0 0 0 1 1 1 1 1 1 1 1 1 1 1 1 0 0 0 0 0 0 0 0 0 0
0 0 0 0 0 0 0 0 0 0 0 0 0 0 0 0 0 0 0 0 0 0 1 1 1 1 1 1 1 1 1 1 1 1 0 0 0 0 0 0 0 0 0
0 0 0 0 0 0 0 0 0 0 0 0 0 0 0 0 0 0 0 0 0 0 0 1 1 1 1 1 1 0 1 1 1 1 1 1 0 0 0 0 0 0 0
0 0 0 0 0 0 0 0 0 0 0 0 0 0 0 0 0 0 0 0 0 0 0 0 1 1 1 1 1 0 0 0 1 1 1 1 1 1 0 0 0 0 0
0 0 0 0 0 0 0 0 0 0 0 0 0 0 0 0 0 0 0 0 0 0 0 0 0 0 1 1 1 1 0 0 0 1 1 1 1 1 0 0 1 0 0
0 0 0 0 0 0 0 0 0 0 0 0 0 0 0 0 0 0 0 0 0 0 0 0 0 0 0 1 1 1 0 0 0 1 1 1 1 1 1 1 1 1 1
0 0 0 0 0 0 0 0 0 0 0 0 0 0 0 0 0 0 0 0 0 0 0 0 0 0 0 0 0 0 0 0 0 1 1 1 1 1 1 1 1 1 1
0 0 0 0 0 0 0 0 0 0 0 0 0 0 0 0 0 0 0 0 0 0 0 0 0 0 0 0 0 0 0 0 0 0 0 0 1 1 1 1 1 1 1
0 0 0 0 0 0 0 0 0 0 0 0 0 0 0 0 0 0 0 0 0 0 0 0 0 0 0 0 0 0 0 0 0 0 0 0 0 0 0 0 1 1 1
0 0 0 0 0 0 0 0 0 0 0 0 0 0 0 0 0 0 0 0 0 0 0 0 0 0 0 0 0 0 0 0 0 0 0 0 0 0 0 0 0 0 0
0 0 0 0 0 0 0 0 0 0 0 0 0 0 0 0 0 0 0 0 0 0 0 0 0 0 0 0 0 0 0 0 0 0 0 0 0 0 0 0 0 0 0
0 0 0 0 0 0 0 0 0 0 0 0 0 0 0 0 0 0 0 0 0 0 0 0 0 0 0 0 0 0 0 0 0 0 0 0 0 0 0 0 0 0 0
0 0 0 0 0 0 0 0 0 0 0 0 0 0 0 0 0 0 0 0 0 0 0 0 0 0 0 0 0 0 0 0 0 0 0 0 0 0 0 0 0 0 0
0 0 0 0 0 0 0 0 0 0 0 0 0 0 0 0 0 0 0 0 0 0 0 0 0 0 0 0 0 0 0 0 0 0 0 0 0 0 0 0 0 0 0
0 0 0 0 0 0 0 0 0 0 0 0 0 0 0 0 0 0 0 0 0 0 0 0 0 0 0 0 0 0 0 0 0 0 0 0 0 0 0 0 0 0 0
0 0 0 0 0 0 0 0 0 0 0 0 0 0 0 0 0 0 0 0 0 0 0 0 0 0 0 0 0 0 0 0 0 0 0 0 0 0 0 0 0 0 0
0 0 0 0 0 0 0 0 0 0 0 0 0 0 0 0 0 0 0 0 0 0 0 0 0 0 0 0 0 0 0 0 0 0 0 0 0 0 0 0 0 0 0
0 0 0 0 0 0 0 0 0 0 0 0 0 0 0 0 0 0 0 0 0 0 0 0 0 0 0 0 0 0 0 0 0 0 0 0 0 0 0 0 0 0 0
0 0 0 0 0 0 0 0 0 0 0 0 0 0 0 0 0 0 0 0 0 0 0 0 0 0 0 0 0 0 0 0 0 0 0 0 0 0 0 0 0 0 0
0 0 0 0 0 0 0 0 0 0 0 0 0 0 0 0 0 0 0 0 0 0 0 0 0 0 0 0 0 0 0 0 0 0 0 0 0 0 0 0 0 0 0
0 0 0 0 0 0 0 0 0 0 0 0 0 0 0 0 0 0 0 0 0 0 0 0 0 0 0 0 0 0 0 0 0 0 0 0 0 0 0 0 0 0 0
0 0 0 0 0 0 0 0 0 0 0 0 0 0 0 0 0 0 0 0 0 0 0 0 0 0 0 0 0 0 0 0 0 0 0 0 0 0 0 0 0 0 0
Wind_Speed
6 5 3 3 3 3 3 4 4 5 6 7 7 7 8 8 8 7 6 13 14 14 16 17 18 20 20 18 18 19 18 19 18 18 18 18 18 18 18 18 17 16 16
5 4 4 3 3 3 3 4 4 4 4 4 5 6 6 6 6 7 7 9 14 14 15 18 20 20 20 19 19 19 19 19 18 18 18 18 18 18 18 18 18 17 17
6 5 3 3 3 3 3 2 3 2 3 3 4 4 4 5 5 6 7 6 7 12 17 19 19 19 20 21 21 20 19 19 18 18 18 18 18 18 18 18 18 18 17
7 5 3 3 2 1 1 1 1 1 2 2 3 3 4 4 5 6 6 6 6 6 10 17 19 20 21 22 22 21 20 19 19 18 18 19 19 19 18 18 18 18 18
7 5 3 2 2 1 1 1 0 1 1 2 3 4 4 4 5 6 6 7 7 7 7 11 19 20 22 23 22 21 20 20 20 20 19 19 19 18 18 19 19 18 18
6 5 3 3 3 2 1 0 1 1 1 2 3 4 4 5 4 5 7 6 6 8 8 9 8 12 20 21 21 21 20 19 19 19 20 19 19 18 18 18 18 19 19
7 6 4 3 3 2 2 1 1 1 1 1 1 4 4 4 4 4 4 4 4 5 6 7 7 7 6 14 17 18 19 20 19 19 19 19 19 18 17 18 18 18 19
7 6 6 4 4 3 1 0 1 1 1 0 1 1 4 5 4 2 2 2 3 3 4 5 6 7 6 4 8 16 18 19 20 19 18 17 18 17 17 18 18 18 18
6 6 7 5 5 4 3 2 2 3 2 1 1 2 1 3 4 3 2 2 2 2 3 3 3 4 5 5 5 9 14 16 18 17 16 16 16 16 16 17 18 18 18
4 6 7 6 6 4 4 4 3 3 3 2 1 2 3 3 2 4 4 2 3 3 3 3 2 1 2 3 4 6 9 10 12 13 15 15 14 14 14 15 17 18 18
4 5 5 6 6 5 5 5 4 4 3 3 3 2 2 2 3 3 4 4 4 2 2 2 1 1 1 2 3 5 8 8 7 7 10 11 10 10 11 13 16 17 18
3 3 4 5 6 5 6 6 5 5 4 4 4 3 3 3 3 3 4 4 4 3 3 2 1 1 1 2 4 6 8 7 5 4 4 5 5 5 5 7 10 12 15
3 4 3 4 5 6 6 5 5 5 5 5 5 4 4 5 4 3 3 3 3 3 2 1 1 1 2 2 3 7 6 7 7 7 7 6 5 4 2 1 2 5 7
4 5 5 4 4 5 6 5 4 5 5 5 6 5 4 5 4 4 4 3 2 2 1 1 1 1 1 2 4 6 5 9 10 10 10 9 9 8 7 6 6 5 4
4 6 6 6 5 4 5 5 4 5 5 6 6 6 5 4 4 4 4 4 3 2 2 1 0 2 2 3 5 5 6 10 12 11 11 12 12 11 11 10 10 9 9
4 5 6 6 6 6 5 5 4 5 6 6 5 6 6 4 4 4 4 4 5 4 3 2 1 2 4 5 7 6 8 13 13 13 13 13 13 12 12 11 11 11 10
5 5 5 5 6 6 5 5 6 6 7 7 6 6 7 5 4 4 4 4 4 4 4 2 2 3 5 7 7 7 7 6 8 13 13 13 13 13 12 12 12 11 11
6 6 5 5 6 6 5 5 6 6 6 7 7 6 7 5 5 4 4 4 4 4 4 4 3 3 5 9 9 8 7 7 7 12 14 14 13 13 12 12 12 11 12
7 7 6 6 6 6 6 6 6 6 6 7 7 7 7 6 6 4 4 4 3 4 4 5 4 3 4 7 9 8 9 7 7 10 12 13 13 13 13 12 12 12 12
8 8 8 7 7 7 6 6 6 6 6 7 7 7 7 7 7 6 5 4 4 4 5 6 6 5 5 7 8 8 7 6 6 6 8 9 12 14 13 13 13 13 12
10 9 8 8 7 6 7 6 5 5 5 6 6 6 7 8 9 7 5 5 5 5 5 6 7 6 7 8 8 6 9 7 5 4 5 4 5 5 6 9 11 12 12
10 9 9 9 8 8 9 10 7 5 5 6 6 6 6 7 9 9 9 9 9 8 8 7 6 9 9 9 8 9 10 8 5 2 3 4 3 4 3 4 7 10 11
10 9 9 9 9 10 13 13 12 6 5 5 6 6 6 6 7 5 6 7 7 9 10 8 10 9 10 10 11 11 9 6 5 6 5 4 3 3 2 4 8 9 9
7 8 9 9 8 10 13 13 13 7 5 6 6 7 7 7 7 7 6 5 4 5 7 7 7 8 9 10 10 11 10 8 7 4 3 4 2 2 2 3 5 7 8
7 7 6 8 8 9 12 13 11 5 5 6 6 7 8 9 11 11 8 7 6 4 6 10 11 12 14 14 12 10 9 10 9 4 2 4 3 3 2 1 2 4 6
7 7 8 8 8 9 11 13 11 4 5 5 5 6 10 11 13 14 10 10 9 7 8 10 11 12 11 12 13 10 10 11 9 5 3 4 4 4 2 0 0 1 2
Wind_Direction
211 211 211 215 214 207 211 222 228 231 234 236 237 236 237 235 230 228 240 248 250 250 250 243 234 227 221 219 217 216 216 217 216 214 214 213 213 211 210 210 210 208 206
198 199 207 213 217 208 209 212 220 226 230 231 241 244 242 238 230 227 228 240 243 240 241 236 229 228 225 222 221 219 218 218 217 216 215 215 215 214 213 213 212 211 209
184 187 193 207 223 215 211 216 233 232 240 242 250 256 252 246 237 230 228 225 229 234 234 232 230 231 230 228 226 223 220 218 217 217 216 216 216 216 215 214 214 212 211
177 175 180 199 211 191 190 221 252 279 279 277 273 269 265 260 255 246 237 232 226 231 234 234 235 234 235 234 232 228 223 220 218 218 217 217 217 217 216 216 215 214 212
170 164 172 188 173 146 165 228 145 195 258 290 283 272 269 265 259 260 251 243 234 227 226 233 236 235 238 240 239 235 230 224 221 219 219 219 219 219 218 217 217 215 214
163 158 161 163 144 130 124 147 218 218 221 256 291 295 278 268 258 253 255 254 243 236 232 233 234 239 239 241 243 240 236 232 228 224 222 221 221 219 218 218 218 217 216
162 160 158 156 141 146 176 200 212 275 285 285 341 315 298 280 269 262 264 269 265 256 244 233 229 230 235 236 240 242 241 239 235 231 227 223 222 219 217 217 218 218 218
168 165 160 161 160 158 163 162 166 183 271 283 164 315 328 332 333 306 304 296 300 303 282 261 237 222 223 223 229 234 238 241 240 235 234 229 225 221 218 218 217 218 218
176 168 171 169 174 172 185 197 191 183 209 266 194 181 234 284 308 307 298 309 327 319 303 297 258 226 219 215 225 232 237 238 240 238 239 235 229 223 220 218 219 219 219
199 185 181 181 185 184 189 201 191 185 177 220 263 218 208 207 249 306 310 306 318 317 309 306 295 238 205 196 210 217 228 235 236 242 244 238 229 221 220 220 223 223 221
233 214 200 192 195 194 196 198 199 205 195 197 207 221 242 237 215 228 289 311 322 308 308 293 273 241 203 182 188 204 204 210 218 231 241 230 219 215 218 224 230 231 227
294 267 235 215 206 201 203 203 203 209 212 214 214 207 210 223 223 217 252 290 304 304 314 307 256 210 191 170 177 186 192 180 177 176 188 192 195 200 217 228 237 242 240
322 311 282 241 221 212 210 204 203 214 215 220 223 222 220 223 217 214 234 262 275 294 312 336 304 180 166 157 156 156 157 143 133 129 120 113 112 112 110 111 253 260 255
312 314 315 284 252 229 218 208 210 219 220 224 232 230 227 231 217 210 210 224 272 288 292 282 347 94 122 115 114 114 113 119 117 113 106 101 96 91 86 78 69 58 50
319 334 330 321 304 274 247 226 223 226 224 227 233 235 234 237 225 218 208 196 203 240 261 231 164 97 108 100 111 108 115 115 112 107 102 99 95 89 84 81 76 71 69
309 320 325 324 321 310 286 256 245 239 232 235 233 235 237 237 232 225 215 207 200 201 217 210 191 143 132 121 111 106 108 109 103 101 99 96 94 90 86 81 77 73 72
283 294 300 306 307 304 301 284 263 250 240 241 240 234 236 231 232 232 223 214 204 193 206 199 176 146 132 129 118 109 104 98 100 100 99 97 94 91 87 82 78 75 75
262 267 274 283 289 294 298 296 289 278 256 246 240 234 238 234 230 230 226 223 209 191 183 180 166 152 137 139 129 119 108 101 99 101 100 98 96 92 88 84 79 75 73
249 254 256 261 267 274 279 282 284 285 272 254 239 229 230 223 229 229 227 224 209 192 177 166 160 142 131 138 128 115 109 103 99 102 96 93 93 91 88 85 82 77 74
237 243 245 247 252 260 266 271 277 283 281 270 249 230 222 215 219 219 222 218 193 174 166 161 154 146 137 137 131 127 119 109 104 99 92 92 92 89 88 88 87 85 80
237 236 238 242 245 249 253 253 259 278 285 284 267 238 223 216 212 209 209 203 180 172 167 163 155 149 148 149 142 134 127 115 92 98 102 85 79 73 68 79 86 90 88
236 233 233 235 239 246 252 257 258 263 271 275 270 252 229 213 210 210 211 202 186 176 173 168 161 160 156 147 137 140 137 134 121 140 108 90 76 75 60 65 86 92 93
231 230 231 229 232 239 245 252 256 251 253 262 258 245 225 207 193 190 195 191 189 184 177 169 164 162 158 154 147 146 147 136 127 153 126 98 73 72 55 71 87 92 95
222 225 229 227 228 237 239 242 249 245 245 253 252 240 223 199 193 181 170 162 158 162 168 165 157 153 151 150 150 147 142 116 105 126 118 110 104 85 60 42 67 90 96
222 221 221 221 223 236 238 239 240 231 239 252 257 248 221 200 193 178 165 156 142 134 134 137 137 137 142 145 144 138 139 136 137 146 131 112 124 98 66 34 25 79 95
223 223 224 220 219 228 235 237 232 214 232 248 260 255 223 202 186 177 169 160 152 145 134 125 121 124 133 144 149 152 152 149 142 146 173 123 139 127 108 341 16 30 58